N7158C KLWM-KPWM

Flight info

Callsign N7158C
Flight time 0h 51m
Altitude 4000
Route PEASE ENE
Aircraft C172/L-SFG/C

Departure

Time 2026-05-08 01:21
Airport Lawrence Municipal Airport (KLWM)

Arrival

Time 2026-05-08 02:13
Airport Portland International Jetport (KPWM)
Time Latitude Longitude Altitude Speed Heading
2026-05-08 01:04 42.71458 -71.12227 146 ft 0 kts 122°
2026-05-08 01:17 42.71465 -71.12201 147 ft 11 kts 33°
2026-05-08 01:17 42.71547 -71.12163 144 ft 13 kts 36°
2026-05-08 01:17 42.71602 -71.12101 144 ft 2 kts 43°
2026-05-08 01:18 42.71610 -71.12062 143 ft 7 kts 107°
2026-05-08 01:18 42.71584 -71.11998 146 ft 8 kts 122°
2026-05-08 01:18 42.71553 -71.11931 149 ft 8 kts 122°
2026-05-08 01:18 42.71524 -71.11868 151 ft 6 kts 119°
2026-05-08 01:19 42.71518 -71.11840 152 ft 0 kts 90°
2026-05-08 01:20 42.71524 -71.11813 152 ft 12 kts 44°
2026-05-08 01:20 42.71594 -71.11846 149 ft 22 kts 303°
2026-05-08 01:20 42.71772 -71.12236 143 ft 72 kts 301°
2026-05-08 01:21 42.72076 -71.12915 220 ft 93 kts 304°
2026-05-08 01:21 42.72390 -71.13577 587 ft 79 kts 299°
2026-05-08 01:21 42.72640 -71.14192 839 ft 74 kts 301°
2026-05-08 01:21 42.72905 -71.14831 1027 ft 77 kts 298°
2026-05-08 01:22 42.73150 -71.15438 1311 ft 70 kts 299°
2026-05-08 01:22 42.73380 -71.15998 1546 ft 66 kts 299°
2026-05-08 01:22 42.73591 -71.16537 1762 ft 65 kts 299°
2026-05-08 01:22 42.73809 -71.17081 1984 ft 67 kts 299°
2026-05-08 01:23 42.74072 -71.17722 2016 ft 87 kts 300°
2026-05-08 01:23 42.74392 -71.18502 2016 ft 100 kts 300°
2026-05-08 01:23 42.74738 -71.19342 2011 ft 106 kts 300°
2026-05-08 01:23 42.75175 -71.20142 2011 ft 105 kts 327°
2026-05-08 01:24 42.75825 -71.20349 2006 ft 92 kts 350°
2026-05-08 01:24 42.76456 -71.20183 2264 ft 92 kts 14°
2026-05-08 01:24 42.76995 -71.19653 2457 ft 99 kts 33°
2026-05-08 01:24 42.77512 -71.19041 2662 ft 98 kts 31°
2026-05-08 01:25 42.78032 -71.18435 2860 ft 99 kts 31°
2026-05-08 01:25 42.78554 -71.17830 3062 ft 98 kts 31°
2026-05-08 01:25 42.79076 -71.17226 3246 ft 99 kts 31°
2026-05-08 01:25 42.79602 -71.16620 3423 ft 100 kts 31°
2026-05-08 01:26 42.80131 -71.16010 3606 ft 100 kts 31°
2026-05-08 01:26 42.80655 -71.15407 3787 ft 100 kts 32°
2026-05-08 01:26 42.81185 -71.14796 3976 ft 100 kts 32°
2026-05-08 01:26 42.81753 -71.14143 4003 ft 113 kts 33°
2026-05-08 01:27 42.82359 -71.13435 4008 ft 116 kts 34°
2026-05-08 01:27 42.82976 -71.12717 4006 ft 117 kts 34°
2026-05-08 01:27 42.83600 -71.11996 4005 ft 118 kts 33°
2026-05-08 01:27 42.84228 -71.11271 4007 ft 118 kts 33°
2026-05-08 01:28 42.84856 -71.10545 4005 ft 119 kts 33°
2026-05-08 01:28 42.85487 -71.09817 4005 ft 119 kts 34°
2026-05-08 01:28 42.86121 -71.09086 4004 ft 119 kts 34°
2026-05-08 01:28 42.86755 -71.08354 4002 ft 120 kts 34°
2026-05-08 01:29 42.87390 -71.07621 4001 ft 119 kts 34°
2026-05-08 01:29 42.88013 -71.06901 4001 ft 119 kts 33°
2026-05-08 01:29 42.88645 -71.06172 3999 ft 119 kts 33°
2026-05-08 01:29 42.89277 -71.05442 4000 ft 119 kts 33°
2026-05-08 01:30 42.89909 -71.04711 3999 ft 119 kts 33°
2026-05-08 01:30 42.90542 -71.03981 3996 ft 119 kts 33°
2026-05-08 01:30 42.91174 -71.03251 3998 ft 119 kts 33°
2026-05-08 01:30 42.91813 -71.02512 3996 ft 121 kts 33°
2026-05-08 01:31 42.92459 -71.01765 3976 ft 122 kts 34°
2026-05-08 01:31 42.93109 -71.01013 3975 ft 123 kts 34°
2026-05-08 01:31 42.93754 -71.00266 3974 ft 123 kts 34°
2026-05-08 01:31 42.94406 -70.99511 3972 ft 123 kts 34°
2026-05-08 01:32 42.95054 -70.98760 3996 ft 122 kts 34°
2026-05-08 01:32 42.95705 -70.98006 3993 ft 123 kts 34°
2026-05-08 01:32 42.96356 -70.97252 3994 ft 123 kts 33°
2026-05-08 01:32 42.97007 -70.96497 3997 ft 123 kts 33°
2026-05-08 01:33 42.97660 -70.95740 3995 ft 123 kts 33°
2026-05-08 01:33 42.98310 -70.94986 3993 ft 123 kts 33°
2026-05-08 01:33 42.98964 -70.94228 3997 ft 124 kts 33°
2026-05-08 01:33 42.99610 -70.93478 3998 ft 123 kts 34°
2026-05-08 01:34 43.00264 -70.92719 3997 ft 124 kts 34°
2026-05-08 01:34 43.00920 -70.91958 3996 ft 124 kts 34°
2026-05-08 01:34 43.01574 -70.91197 3998 ft 124 kts 34°
2026-05-08 01:34 43.02230 -70.90436 4000 ft 124 kts 33°
2026-05-08 01:35 43.02887 -70.89671 4001 ft 124 kts 34°
2026-05-08 01:35 43.03547 -70.88904 4000 ft 125 kts 33°
2026-05-08 01:35 43.04206 -70.88138 4001 ft 124 kts 33°
2026-05-08 01:35 43.04849 -70.87390 4001 ft 124 kts 33°
2026-05-08 01:36 43.05517 -70.86613 4000 ft 124 kts 34°
2026-05-08 01:36 43.06164 -70.85860 4000 ft 124 kts 33°
2026-05-08 01:36 43.06819 -70.85098 4001 ft 124 kts 33°
2026-05-08 01:36 43.07474 -70.84335 4002 ft 124 kts 34°
2026-05-08 01:37 43.08133 -70.83567 4003 ft 125 kts 34°
2026-05-08 01:37 43.08840 -70.82938 3998 ft 119 kts 17°
2026-05-08 01:37 43.09596 -70.82470 3996 ft 119 kts 18°
2026-05-08 01:37 43.10348 -70.81991 4000 ft 119 kts 18°
2026-05-08 01:38 43.11099 -70.81512 4001 ft 119 kts 18°
2026-05-08 01:38 43.11848 -70.81035 3998 ft 119 kts 18°
2026-05-08 01:38 43.12587 -70.80564 3996 ft 119 kts 17°
2026-05-08 01:38 43.13334 -70.80088 3997 ft 118 kts 17°
2026-05-08 01:39 43.14080 -70.79613 3999 ft 118 kts 17°
2026-05-08 01:39 43.14827 -70.79136 3994 ft 119 kts 17°
2026-05-08 01:39 43.15577 -70.78658 3996 ft 119 kts 17°
2026-05-08 01:39 43.16321 -70.78183 4002 ft 118 kts 17°
2026-05-08 01:40 43.17069 -70.77707 3999 ft 119 kts 18°
2026-05-08 01:40 43.17818 -70.77228 4001 ft 119 kts 18°
2026-05-08 01:40 43.18568 -70.76749 4000 ft 119 kts 18°
2026-05-08 01:40 43.19319 -70.76269 4000 ft 119 kts 18°
2026-05-08 01:41 43.20062 -70.75795 4002 ft 120 kts 18°
2026-05-08 01:41 43.20816 -70.75313 4002 ft 120 kts 18°
2026-05-08 01:41 43.21571 -70.74830 4001 ft 120 kts 17°
2026-05-08 01:41 43.22328 -70.74353 4012 ft 120 kts 17°
2026-05-08 01:42 43.23086 -70.73874 4011 ft 120 kts 17°
2026-05-08 01:42 43.23844 -70.73391 4014 ft 121 kts 17°
2026-05-08 01:42 43.24604 -70.72905 4020 ft 120 kts 18°
2026-05-08 01:42 43.25363 -70.72419 4021 ft 120 kts 18°
2026-05-08 01:43 43.26121 -70.71933 4022 ft 120 kts 18°
2026-05-08 01:43 43.26879 -70.71448 4021 ft 120 kts 18°
2026-05-08 01:43 43.27635 -70.70962 4021 ft 120 kts 18°
2026-05-08 01:43 43.28378 -70.70485 4021 ft 119 kts 18°
2026-05-08 01:44 43.29132 -70.70002 4021 ft 120 kts 18°
2026-05-08 01:44 43.29885 -70.69519 4021 ft 120 kts 18°
2026-05-08 01:44 43.30637 -70.69035 4023 ft 119 kts 18°
2026-05-08 01:44 43.31390 -70.68552 4024 ft 119 kts 18°
2026-05-08 01:45 43.32142 -70.68069 4023 ft 119 kts 18°
2026-05-08 01:45 43.32891 -70.67588 4020 ft 119 kts 18°
2026-05-08 01:45 43.33641 -70.67105 4024 ft 119 kts 18°
2026-05-08 01:45 43.34390 -70.66623 4025 ft 119 kts 18°
2026-05-08 01:46 43.35138 -70.66142 4023 ft 119 kts 18°
2026-05-08 01:46 43.35887 -70.65660 4026 ft 119 kts 18°
2026-05-08 01:46 43.36626 -70.65185 4023 ft 119 kts 18°
2026-05-08 01:46 43.37373 -70.64704 4023 ft 119 kts 18°
2026-05-08 01:47 43.38121 -70.64222 4025 ft 119 kts 18°
2026-05-08 01:47 43.38869 -70.63740 4022 ft 119 kts 18°
2026-05-08 01:47 43.39618 -70.63258 4026 ft 119 kts 17°
2026-05-08 01:48 43.41116 -70.62292 4024 ft 119 kts 17°
2026-05-08 01:48 43.41867 -70.61808 4025 ft 119 kts 17°
2026-05-08 01:48 43.42567 -70.61177 4027 ft 125 kts 40°
2026-05-08 01:48 43.43021 -70.60123 4023 ft 130 kts 59°
2026-05-08 01:49 43.43421 -70.59004 4023 ft 130 kts 58°
2026-05-08 01:49 43.43820 -70.57900 4024 ft 131 kts 58°
2026-05-08 01:49 43.44225 -70.56780 4024 ft 131 kts 58°
2026-05-08 01:49 43.44628 -70.55664 4023 ft 130 kts 58°
2026-05-08 01:50 43.45032 -70.54546 4027 ft 130 kts 58°
2026-05-08 01:50 43.45437 -70.53427 4021 ft 131 kts 58°
2026-05-08 01:50 43.45842 -70.52305 4017 ft 131 kts 58°
2026-05-08 01:50 43.46247 -70.51185 4019 ft 131 kts 58°
2026-05-08 01:51 43.46651 -70.50064 4019 ft 131 kts 58°
2026-05-08 01:51 43.47055 -70.48943 4020 ft 131 kts 58°
2026-05-08 01:51 43.47460 -70.47819 4019 ft 131 kts 58°
2026-05-08 01:51 43.47865 -70.46695 4015 ft 131 kts 58°
2026-05-08 01:52 43.48264 -70.45587 4005 ft 131 kts 58°
2026-05-08 01:52 43.48667 -70.44469 4004 ft 130 kts 58°
2026-05-08 01:52 43.49069 -70.43354 4003 ft 130 kts 58°
2026-05-08 01:52 43.49471 -70.42238 4006 ft 130 kts 58°
2026-05-08 01:53 43.49871 -70.41126 4004 ft 130 kts 58°
2026-05-08 01:53 43.50272 -70.40011 4001 ft 130 kts 58°
2026-05-08 01:53 43.50537 -70.39273 4004 ft 130 kts 58°
2026-05-08 01:53 43.50937 -70.38161 4002 ft 129 kts 58°
2026-05-08 01:54 43.51336 -70.37050 4002 ft 129 kts 58°
2026-05-08 01:54 43.51734 -70.35941 3997 ft 129 kts 58°
2026-05-08 01:54 43.52263 -70.34466 4004 ft 130 kts 58°
2026-05-08 01:54 43.52662 -70.33354 4005 ft 130 kts 58°
2026-05-08 01:55 43.53062 -70.32240 4003 ft 130 kts 58°
2026-05-08 01:55 43.53326 -70.31502 4005 ft 130 kts 58°
2026-05-08 01:55 43.53726 -70.30387 4005 ft 130 kts 58°
2026-05-08 01:55 43.54125 -70.29272 4001 ft 130 kts 58°
2026-05-08 01:56 43.54524 -70.28157 4004 ft 130 kts 58°
2026-05-08 01:56 43.54923 -70.27044 4005 ft 129 kts 58°
2026-05-08 01:56 43.55322 -70.25930 4004 ft 130 kts 58°
2026-05-08 01:56 43.55720 -70.24816 4004 ft 129 kts 58°
2026-05-08 01:57 43.56118 -70.23703 4000 ft 130 kts 58°
2026-05-08 01:57 43.56518 -70.22585 4008 ft 130 kts 58°
2026-05-08 01:57 43.56916 -70.21469 4008 ft 130 kts 58°
2026-05-08 01:57 43.57315 -70.20351 4009 ft 130 kts 59°
2026-05-08 01:58 43.57707 -70.19251 4008 ft 130 kts 58°
2026-05-08 01:58 43.58106 -70.18133 4021 ft 130 kts 58°
2026-05-08 01:58 43.58506 -70.17013 4019 ft 130 kts 58°
2026-05-08 01:58 43.58905 -70.15893 4021 ft 130 kts 58°
2026-05-08 01:59 43.59303 -70.14774 4021 ft 130 kts 58°
2026-05-08 01:59 43.59702 -70.13656 4023 ft 130 kts 58°
2026-05-08 01:59 43.60100 -70.12538 4021 ft 130 kts 58°
2026-05-08 01:59 43.60498 -70.11420 4019 ft 130 kts 58°
2026-05-08 02:00 43.60879 -70.10333 4014 ft 121 kts 58°
2026-05-08 02:00 43.61235 -70.09329 4003 ft 115 kts 57°
2026-05-08 02:00 43.61580 -70.08362 4001 ft 110 kts 57°
2026-05-08 02:00 43.61915 -70.07424 4004 ft 107 kts 56°
2026-05-08 02:01 43.62240 -70.06512 4003 ft 106 kts 56°
2026-05-08 02:01 43.62563 -70.05608 4002 ft 105 kts 57°
2026-05-08 02:01 43.62923 -70.04758 4002 ft 99 kts 40°
2026-05-08 02:01 43.63370 -70.04033 4012 ft 99 kts 41°
2026-05-08 02:02 43.63811 -70.03301 4010 ft 99 kts 41°
2026-05-08 02:02 43.64252 -70.02567 4004 ft 99 kts 41°
2026-05-08 02:02 43.64527 -70.01670 3958 ft 111 kts 84°
2026-05-08 02:02 43.64261 -70.00664 3852 ft 118 kts 136°
2026-05-08 02:03 43.63554 -70.00196 3741 ft 112 kts 186°
2026-05-08 02:03 43.62858 -70.00496 3635 ft 102 kts 228°
2026-05-08 02:03 43.62498 -70.01274 3523 ft 94 kts 267°
2026-05-08 02:03 43.62544 -70.02152 3408 ft 92 kts 278°
2026-05-08 02:04 43.62592 -70.03028 3282 ft 91 kts 279°
2026-05-08 02:04 43.62651 -70.03898 3163 ft 91 kts 280°
2026-05-08 02:04 43.62707 -70.04753 3030 ft 89 kts 280°
2026-05-08 02:04 43.62762 -70.05563 3003 ft 80 kts 281°
2026-05-08 02:05 43.62811 -70.06298 3001 ft 73 kts 281°
2026-05-08 02:05 43.62856 -70.06999 3004 ft 75 kts 281°
2026-05-08 02:05 43.62903 -70.07713 3007 ft 77 kts 281°
2026-05-08 02:05 43.62953 -70.08454 3009 ft 78 kts 280°
2026-05-08 02:06 43.63002 -70.09205 3010 ft 79 kts 280°
2026-05-08 02:06 43.63055 -70.09949 2961 ft 79 kts 280°
2026-05-08 02:06 43.63107 -70.10699 2854 ft 78 kts 281°
2026-05-08 02:06 43.63158 -70.11439 2743 ft 77 kts 281°
2026-05-08 02:07 43.63209 -70.12173 2635 ft 77 kts 281°
2026-05-08 02:07 43.63258 -70.12894 2532 ft 74 kts 281°
2026-05-08 02:07 43.63305 -70.13593 2431 ft 72 kts 282°
2026-05-08 02:07 43.63351 -70.14275 2339 ft 69 kts 282°
2026-05-08 02:08 43.63394 -70.14939 2237 ft 70 kts 282°
2026-05-08 02:08 43.63440 -70.15599 2142 ft 70 kts 282°
2026-05-08 02:08 43.63486 -70.16273 2045 ft 71 kts 282°
2026-05-08 02:08 43.63531 -70.16950 1951 ft 71 kts 282°
2026-05-08 02:09 43.63580 -70.17674 1847 ft 83 kts 282°
2026-05-08 02:09 43.63638 -70.18517 1731 ft 93 kts 281°
2026-05-08 02:09 43.63699 -70.19438 1599 ft 99 kts 281°
2026-05-08 02:09 43.63764 -70.20413 1461 ft 107 kts 280°
2026-05-08 02:10 43.63838 -70.21478 1302 ft 115 kts 280°
2026-05-08 02:10 43.63911 -70.22593 1137 ft 115 kts 280°
2026-05-08 02:10 43.63983 -70.23611 982 ft 101 kts 279°
2026-05-08 02:10 43.64045 -70.24529 852 ft 90 kts 280°
2026-05-08 02:11 43.64095 -70.25321 734 ft 78 kts 280°
2026-05-08 02:11 43.64143 -70.26010 639 ft 67 kts 279°
2026-05-08 02:11 43.64184 -70.26657 557 ft 71 kts 279°
2026-05-08 02:11 43.64233 -70.27387 461 ft 82 kts 280°
2026-05-08 02:12 43.64289 -70.28193 356 ft 81 kts 281°
2026-05-08 02:12 43.64327 -70.28907 268 ft 65 kts 278°
2026-05-08 02:12 43.64368 -70.29484 127 ft 57 kts 275°
2026-05-08 02:12 43.64400 -70.30062 70 ft 60 kts 279°
2026-05-08 02:13 43.64442 -70.30516 50 ft 33 kts 266°
2026-05-08 02:13 43.64412 -70.30674 52 ft 16 kts 196°
2026-05-08 02:13 43.64269 -70.30685 54 ft 14 kts 192°
2026-05-08 02:13 43.64220 -70.30667 54 ft 4 kts 119°
2026-05-08 02:14 43.64236 -70.30656 53 ft 8 kts 314°
2026-05-08 02:14 43.64234 -70.30783 57 ft 21 kts 206°
2026-05-08 02:14 43.64197 -70.30767 57 ft 0 kts 109°